Location: Heiligenberg
(48.5381°N, 7.3897°E)
Time: 03:07:18
(UTC+00:00)

Cosmos 1953 - Pass Details

Date: 26 May 2022
Orbit: 533 x 555 km, 82.5° (Epoch: 26 June)

Event Time Altitude Azimuth Distance (km) Brightness Sun altitude
Rises 01:20:38 0° 334° (NNW) 2,730 6.4 -15.9°
Reaches altitude 10° 01:23:33 10° 311° (NW) 1,825 5.1 -15.7°
Maximum altitude 01:25:53 15° 275° (W) 1,511 4.3 -15.5°
Enters shadow 01:26:39 15° 262° (W) 1,545 4.3 -15.4°
